Year,Month,Day,Hour,Minute,Value (Times are PST for insolation in W/m^2)
2017,05,11,00,00,0.00
2017,05,11,00,01,0.00
2017,05,11,00,02,0.00
2017,05,11,00,03,0.00
2017,05,11,00,04,0.00
2017,05,11,00,05,0.00
2017,05,11,00,06,0.00
2017,05,11,00,07,0.00
2017,05,11,00,08,0.00
2017,05,11,00,09,0.00
2017,05,11,00,10,0.00
2017,05,11,00,11,0.00
2017,05,11,00,12,0.00
2017,05,11,00,13,0.00
2017,05,11,00,14,0.00
2017,05,11,00,15,0.00
2017,05,11,00,16,0.00
2017,05,11,00,17,0.00
2017,05,11,00,18,0.00
2017,05,11,00,19,0.00
2017,05,11,00,20,0.00
2017,05,11,00,21,0.00
2017,05,11,00,22,0.00
2017,05,11,00,23,0.00
2017,05,11,00,24,0.00
2017,05,11,00,25,0.00
2017,05,11,00,26,0.00
2017,05,11,00,27,0.00
2017,05,11,00,28,0.00
2017,05,11,00,29,0.00
2017,05,11,00,30,0.00
2017,05,11,00,31,0.00
2017,05,11,00,32,0.00
2017,05,11,00,33,0.00
2017,05,11,00,34,0.00
2017,05,11,00,35,0.00
2017,05,11,00,36,0.00
2017,05,11,00,37,0.00
2017,05,11,00,38,0.00
2017,05,11,00,39,0.00
2017,05,11,00,40,0.00
2017,05,11,00,41,0.00
2017,05,11,00,42,0.00
2017,05,11,00,43,0.00
2017,05,11,00,44,0.00
2017,05,11,00,45,0.00
2017,05,11,00,46,0.00
2017,05,11,00,47,0.00
2017,05,11,00,48,0.00
2017,05,11,00,49,0.00
2017,05,11,00,50,0.00
2017,05,11,00,51,0.00
2017,05,11,00,52,0.00
2017,05,11,00,53,0.00
2017,05,11,00,54,0.00
2017,05,11,00,55,0.00
2017,05,11,00,56,0.00
2017,05,11,00,57,0.00
2017,05,11,00,58,0.00
2017,05,11,00,59,0.00
2017,05,11,01,00,0.00
2017,05,11,01,01,0.00
2017,05,11,01,02,0.00
2017,05,11,01,03,0.00
2017,05,11,01,04,0.00
2017,05,11,01,05,0.00
2017,05,11,01,06,0.00
2017,05,11,01,07,0.00
2017,05,11,01,08,0.00
2017,05,11,01,09,0.00
2017,05,11,01,10,0.00
2017,05,11,01,11,0.00
2017,05,11,01,12,0.00
2017,05,11,01,13,0.00
2017,05,11,01,14,0.00
2017,05,11,01,15,0.00
2017,05,11,01,16,0.00
2017,05,11,01,17,0.00
2017,05,11,01,18,0.00
2017,05,11,01,19,0.00
2017,05,11,01,20,0.00
2017,05,11,01,21,0.00
2017,05,11,01,22,0.00
2017,05,11,01,23,0.00
2017,05,11,01,24,0.00
2017,05,11,01,25,0.00
2017,05,11,01,26,0.00
2017,05,11,01,27,0.00
2017,05,11,01,28,0.00
2017,05,11,01,29,0.00
2017,05,11,01,30,0.00
2017,05,11,01,31,0.00
2017,05,11,01,32,0.00
2017,05,11,01,33,0.00
2017,05,11,01,34,0.00
2017,05,11,01,35,0.00
2017,05,11,01,36,0.00
2017,05,11,01,37,0.00
2017,05,11,01,38,0.00
2017,05,11,01,39,0.00
2017,05,11,01,40,0.00
2017,05,11,01,41,0.00
2017,05,11,01,42,0.00
2017,05,11,01,43,0.00
2017,05,11,01,44,0.00
2017,05,11,01,45,0.00
2017,05,11,01,46,0.00
2017,05,11,01,47,0.00
2017,05,11,01,48,0.00
2017,05,11,01,49,0.00
2017,05,11,01,50,0.00
2017,05,11,01,51,0.00
2017,05,11,01,52,0.00
2017,05,11,01,53,0.00
2017,05,11,01,54,0.00
2017,05,11,01,55,0.00
2017,05,11,01,56,0.00
2017,05,11,01,57,0.00
2017,05,11,01,58,0.00
2017,05,11,01,59,0.00
2017,05,11,02,00,0.00
2017,05,11,02,01,0.00
2017,05,11,02,02,0.00
2017,05,11,02,03,0.00
2017,05,11,02,04,0.00
2017,05,11,02,05,0.00
2017,05,11,02,06,0.00
2017,05,11,02,07,0.00
2017,05,11,02,08,0.00
2017,05,11,02,09,0.00
2017,05,11,02,10,0.00
2017,05,11,02,11,0.00
2017,05,11,02,12,0.00
2017,05,11,02,13,0.00
2017,05,11,02,14,0.00
2017,05,11,02,15,0.00
2017,05,11,02,16,0.00
2017,05,11,02,17,0.00
2017,05,11,02,18,0.00
2017,05,11,02,19,0.00
2017,05,11,02,20,0.00
2017,05,11,02,21,0.00
2017,05,11,02,22,0.00
2017,05,11,02,23,0.00
2017,05,11,02,24,0.00
2017,05,11,02,25,0.00
2017,05,11,02,26,0.00
2017,05,11,02,27,0.00
2017,05,11,02,28,0.00
2017,05,11,02,29,0.00
2017,05,11,02,30,0.00
2017,05,11,02,31,0.00
2017,05,11,02,32,0.00
2017,05,11,02,33,0.00
2017,05,11,02,34,0.00
2017,05,11,02,35,0.00
2017,05,11,02,36,0.00
2017,05,11,02,37,0.00
2017,05,11,02,38,0.00
2017,05,11,02,39,0.00
2017,05,11,02,40,0.00
2017,05,11,02,41,0.00
2017,05,11,02,42,0.00
2017,05,11,02,43,0.00
2017,05,11,02,44,0.00
2017,05,11,02,45,0.00
2017,05,11,02,46,0.00
2017,05,11,02,47,0.00
2017,05,11,02,48,0.00
2017,05,11,02,49,0.00
2017,05,11,02,50,0.00
2017,05,11,02,51,0.00
2017,05,11,02,52,0.00
2017,05,11,02,53,0.00
2017,05,11,02,54,0.00
2017,05,11,02,55,0.00
2017,05,11,02,56,0.00
2017,05,11,02,57,0.00
2017,05,11,02,58,0.00
2017,05,11,02,59,0.00
2017,05,11,03,00,0.00
2017,05,11,03,01,0.00
2017,05,11,03,02,0.00
2017,05,11,03,03,0.00
2017,05,11,03,04,0.00
2017,05,11,03,05,0.00
2017,05,11,03,06,0.00
2017,05,11,03,07,0.00
2017,05,11,03,08,0.00
2017,05,11,03,09,0.00
2017,05,11,03,10,0.00
2017,05,11,03,11,0.00
2017,05,11,03,12,0.00
2017,05,11,03,13,0.00
2017,05,11,03,14,0.00
2017,05,11,03,15,0.00
2017,05,11,03,16,0.00
2017,05,11,03,17,0.00
2017,05,11,03,18,0.00
2017,05,11,03,19,0.00
2017,05,11,03,20,0.00
2017,05,11,03,21,0.00
2017,05,11,03,22,0.00
2017,05,11,03,23,0.00
2017,05,11,03,24,0.00
2017,05,11,03,25,0.00
2017,05,11,03,26,0.00
2017,05,11,03,27,0.00
2017,05,11,03,28,0.00
2017,05,11,03,29,0.00
2017,05,11,03,30,0.00
2017,05,11,03,31,0.00
2017,05,11,03,32,0.00
2017,05,11,03,33,0.00
2017,05,11,03,34,0.00
2017,05,11,03,35,0.00
2017,05,11,03,36,0.00
2017,05,11,03,37,0.00
2017,05,11,03,38,0.00
2017,05,11,03,39,0.00
2017,05,11,03,40,0.00
2017,05,11,03,41,0.00
2017,05,11,03,42,0.00
2017,05,11,03,43,0.00
2017,05,11,03,44,0.00
2017,05,11,03,45,0.00
2017,05,11,03,46,0.00
2017,05,11,03,47,0.00
2017,05,11,03,48,0.00
2017,05,11,03,49,0.00
2017,05,11,03,50,0.00
2017,05,11,03,51,0.00
2017,05,11,03,52,0.00
2017,05,11,03,53,0.00
2017,05,11,03,54,0.00
2017,05,11,03,55,0.00
2017,05,11,03,56,0.00
2017,05,11,03,57,0.00
2017,05,11,03,58,0.00
2017,05,11,03,59,0.00
2017,05,11,04,00,0.00
2017,05,11,04,01,0.00
2017,05,11,04,02,0.00
2017,05,11,04,03,0.00
2017,05,11,04,04,0.00
2017,05,11,04,05,0.00
2017,05,11,04,06,0.00
2017,05,11,04,07,0.00
2017,05,11,04,08,0.00
2017,05,11,04,09,0.00
2017,05,11,04,10,0.00
2017,05,11,04,11,0.00
2017,05,11,04,12,0.00
2017,05,11,04,13,0.00
2017,05,11,04,14,0.00
2017,05,11,04,15,0.00
2017,05,11,04,16,0.00
2017,05,11,04,17,0.00
2017,05,11,04,18,0.00
2017,05,11,04,19,0.00
2017,05,11,04,20,0.00
2017,05,11,04,21,0.00
2017,05,11,04,22,0.00
2017,05,11,04,23,0.00
2017,05,11,04,24,0.00
2017,05,11,04,25,0.00
2017,05,11,04,26,0.00
2017,05,11,04,27,0.00
2017,05,11,04,28,0.00
2017,05,11,04,29,0.00
2017,05,11,04,30,0.00
2017,05,11,04,31,0.00
2017,05,11,04,32,0.00
2017,05,11,04,33,0.00
2017,05,11,04,34,0.00
2017,05,11,04,35,0.00
2017,05,11,04,36,0.00
2017,05,11,04,37,0.00
2017,05,11,04,38,0.00
2017,05,11,04,39,0.00
2017,05,11,04,40,0.00
2017,05,11,04,41,0.00
2017,05,11,04,42,0.00
2017,05,11,04,43,0.00
2017,05,11,04,44,0.00
2017,05,11,04,45,0.00
2017,05,11,04,46,0.00
2017,05,11,04,47,0.00
2017,05,11,04,48,0.00
2017,05,11,04,49,0.00
2017,05,11,04,50,0.00
2017,05,11,04,51,0.00
2017,05,11,04,52,0.00
2017,05,11,04,53,0.00
2017,05,11,04,54,0.00
2017,05,11,04,55,0.00
2017,05,11,04,56,0.00
2017,05,11,04,57,0.00
2017,05,11,04,58,0.00
2017,05,11,04,59,0.00
2017,05,11,05,00,0.00
2017,05,11,05,01,0.00
2017,05,11,05,02,0.00
2017,05,11,05,03,0.00
2017,05,11,05,04,0.00
2017,05,11,05,05,0.00
2017,05,11,05,06,0.00
2017,05,11,05,07,0.00
2017,05,11,05,08,0.00
2017,05,11,05,09,0.00
2017,05,11,05,10,0.00
2017,05,11,05,11,0.00
2017,05,11,05,12,0.00
2017,05,11,05,13,0.00
2017,05,11,05,14,0.00
2017,05,11,05,15,0.00
2017,05,11,05,16,0.00
2017,05,11,05,17,0.00
2017,05,11,05,18,0.00
2017,05,11,05,19,0.00
2017,05,11,05,20,0.00
2017,05,11,05,21,0.00
2017,05,11,05,22,0.00
2017,05,11,05,23,0.00
2017,05,11,05,24,0.00
2017,05,11,05,25,0.00
2017,05,11,05,26,0.00
2017,05,11,05,27,0.00
2017,05,11,05,28,0.00
2017,05,11,05,29,0.00
2017,05,11,05,30,0.00
2017,05,11,05,31,0.00
2017,05,11,05,32,0.00
2017,05,11,05,33,0.00
2017,05,11,05,34,0.00
2017,05,11,05,35,0.00
2017,05,11,05,36,0.00
2017,05,11,05,37,0.00
2017,05,11,05,38,0.00
2017,05,11,05,39,0.00
2017,05,11,05,40,0.00
2017,05,11,05,41,0.00
2017,05,11,05,42,0.00
2017,05,11,05,43,0.00
2017,05,11,05,44,0.00
2017,05,11,05,45,0.00
2017,05,11,05,46,0.00
2017,05,11,05,47,0.00
2017,05,11,05,48,0.00
2017,05,11,05,49,0.00
2017,05,11,05,50,0.00
2017,05,11,05,51,0.00
2017,05,11,05,52,0.00
2017,05,11,05,53,0.00
2017,05,11,05,54,0.00
2017,05,11,05,55,0.00
2017,05,11,05,56,0.00
2017,05,11,05,57,0.00
2017,05,11,05,58,0.00
2017,05,11,05,59,0.00
2017,05,11,06,00,0.00
2017,05,11,06,01,4.80
2017,05,11,06,02,5.10
2017,05,11,06,03,7.10
2017,05,11,06,04,9.00
2017,05,11,06,05,9.20
2017,05,11,06,06,11.00
2017,05,11,06,07,11.00
2017,05,11,06,08,11.00
2017,05,11,06,09,11.00
2017,05,11,06,10,11.00
2017,05,11,06,11,11.40
2017,05,11,06,12,12.00
2017,05,11,06,13,13.00
2017,05,11,06,14,14.00
2017,05,11,06,15,12.90
2017,05,11,06,16,12.00
2017,05,11,06,17,12.00
2017,05,11,06,18,11.40
2017,05,11,06,19,11.00
2017,05,11,06,20,11.80
2017,05,11,06,21,12.00
2017,05,11,06,22,13.70
2017,05,11,06,23,18.70
2017,05,11,06,24,22.80
2017,05,11,06,25,25.00
2017,05,11,06,26,25.00
2017,05,11,06,27,26.00
2017,05,11,06,28,25.90
2017,05,11,06,29,24.60
2017,05,11,06,30,22.50
2017,05,11,06,31,21.00
2017,05,11,06,32,20.40
2017,05,11,06,33,19.00
2017,05,11,06,34,19.00
2017,05,11,06,35,19.00
2017,05,11,06,36,19.00
2017,05,11,06,37,19.00
2017,05,11,06,38,20.10
2017,05,11,06,39,21.00
2017,05,11,06,40,22.20
2017,05,11,06,41,24.40
2017,05,11,06,42,25.80
2017,05,11,06,43,27.50
2017,05,11,06,44,28.00
2017,05,11,06,45,28.00
2017,05,11,06,46,28.00
2017,05,11,06,47,28.00
2017,05,11,06,48,28.00
2017,05,11,06,49,28.00
2017,05,11,06,50,28.00
2017,05,11,06,51,28.00
2017,05,11,06,52,28.00
2017,05,11,06,53,27.60
2017,05,11,06,54,26.00
2017,05,11,06,55,26.00
2017,05,11,06,56,27.40
2017,05,11,06,57,32.00
2017,05,11,06,58,38.20
2017,05,11,06,59,46.30
2017,05,11,07,00,54.70
2017,05,11,07,01,60.90
2017,05,11,07,02,66.60
2017,05,11,07,03,69.70
2017,05,11,07,04,71.40
2017,05,11,07,05,72.00
2017,05,11,07,06,73.50
2017,05,11,07,07,75.60
2017,05,11,07,08,76.00
2017,05,11,07,09,74.20
2017,05,11,07,10,69.20
2017,05,11,07,11,62.80
2017,05,11,07,12,57.80
2017,05,11,07,13,52.70
2017,05,11,07,14,51.00
2017,05,11,07,15,51.00
2017,05,11,07,16,51.50
2017,05,11,07,17,53.00
2017,05,11,07,18,53.00
2017,05,11,07,19,53.00
2017,05,11,07,20,54.20
2017,05,11,07,21,56.90
2017,05,11,07,22,60.00
2017,05,11,07,23,63.70
2017,05,11,07,24,67.30
2017,05,11,07,25,70.80
2017,05,11,07,26,73.30
2017,05,11,07,27,76.10
2017,05,11,07,28,81.50
2017,05,11,07,29,86.80
2017,05,11,07,30,89.60
2017,05,11,07,31,90.90
2017,05,11,07,32,88.20
2017,05,11,07,33,83.20
2017,05,11,07,34,74.00
2017,05,11,07,35,68.40
2017,05,11,07,36,62.90
2017,05,11,07,37,62.20
2017,05,11,07,38,63.80
2017,05,11,07,39,67.70
2017,05,11,07,40,71.20
2017,05,11,07,41,74.00
2017,05,11,07,42,73.30
2017,05,11,07,43,72.00
2017,05,11,07,44,72.00
2017,05,11,07,45,71.00
2017,05,11,07,46,67.20
2017,05,11,07,47,62.10
2017,05,11,07,48,56.40
2017,05,11,07,49,53.30
2017,05,11,07,50,53.00
2017,05,11,07,51,53.70
2017,05,11,07,52,54.00
2017,05,11,07,53,53.20
2017,05,11,07,54,51.20
2017,05,11,07,55,49.20
2017,05,11,07,56,49.00
2017,05,11,07,57,49.00
2017,05,11,07,58,51.30
2017,05,11,07,59,58.50
2017,05,11,08,00,64.10
2017,05,11,08,01,71.20
2017,05,11,08,02,75.50
2017,05,11,08,03,72.80
2017,05,11,08,04,67.20
2017,05,11,08,05,62.00
2017,05,11,08,06,58.40
2017,05,11,08,07,56.00
2017,05,11,08,08,57.90
2017,05,11,08,09,61.10
2017,05,11,08,10,65.00
2017,05,11,08,11,68.80
2017,05,11,08,12,72.60
2017,05,11,08,13,75.40
2017,05,11,08,14,76.00
2017,05,11,08,15,76.80
2017,05,11,08,16,78.70
2017,05,11,08,17,82.40
2017,05,11,08,18,83.00
2017,05,11,08,19,83.90
2017,05,11,08,20,82.70
2017,05,11,08,21,77.10
2017,05,11,08,22,79.50
2017,05,11,08,23,85.10
2017,05,11,08,24,93.80
2017,05,11,08,25,106.40
2017,05,11,08,26,111.80
2017,05,11,08,27,112.50
2017,05,11,08,28,109.00
2017,05,11,08,29,109.80
2017,05,11,08,30,111.00
2017,05,11,08,31,108.30
2017,05,11,08,32,104.50
2017,05,11,08,33,104.60
2017,05,11,08,34,110.00
2017,05,11,08,35,117.60
2017,05,11,08,36,125.30
2017,05,11,08,37,146.80
2017,05,11,08,38,151.50
2017,05,11,08,39,155.00
2017,05,11,08,40,161.70
2017,05,11,08,41,176.50
2017,05,11,08,42,174.20
2017,05,11,08,43,153.00
2017,05,11,08,44,133.60
2017,05,11,08,45,125.00
2017,05,11,08,46,125.30
2017,05,11,08,47,127.20
2017,05,11,08,48,128.00
2017,05,11,08,49,128.00
2017,05,11,08,50,128.70
2017,05,11,08,51,129.20
2017,05,11,08,52,125.20
2017,05,11,08,53,117.40
2017,05,11,08,54,110.10
2017,05,11,08,55,105.40
2017,05,11,08,56,100.20
2017,05,11,08,57,97.00
2017,05,11,08,58,94.40
2017,05,11,08,59,95.80
2017,05,11,09,00,99.10
2017,05,11,09,01,97.60
2017,05,11,09,02,101.00
2017,05,11,09,03,106.20
2017,05,11,09,04,155.00
2017,05,11,09,05,161.90
2017,05,11,09,06,165.00
2017,05,11,09,07,154.80
2017,05,11,09,08,153.90
2017,05,11,09,09,164.40
2017,05,11,09,10,183.60
2017,05,11,09,11,206.30
2017,05,11,09,12,220.30
2017,05,11,09,13,218.60
2017,05,11,09,14,212.30
2017,05,11,09,15,209.10
2017,05,11,09,16,207.40
2017,05,11,09,17,216.60
2017,05,11,09,18,231.00
2017,05,11,09,19,242.10
2017,05,11,09,20,250.20
2017,05,11,09,21,253.00
2017,05,11,09,22,251.60
2017,05,11,09,23,244.00
2017,05,11,09,24,227.50
2017,05,11,09,25,223.00
2017,05,11,09,26,199.00
2017,05,11,09,27,192.30
2017,05,11,09,28,192.90
2017,05,11,09,29,185.00
2017,05,11,09,30,178.00
2017,05,11,09,31,178.30
2017,05,11,09,32,180.70
2017,05,11,09,33,178.00
2017,05,11,09,34,172.80
2017,05,11,09,35,169.00
2017,05,11,09,36,170.00
2017,05,11,09,37,171.60
2017,05,11,09,38,171.00
2017,05,11,09,39,171.40
2017,05,11,09,40,173.00
2017,05,11,09,41,176.20
2017,05,11,09,42,179.80
2017,05,11,09,43,181.00
2017,05,11,09,44,179.70
2017,05,11,09,45,183.20
2017,05,11,09,46,190.00
2017,05,11,09,47,198.40
2017,05,11,09,48,208.80
2017,05,11,09,49,219.50
2017,05,11,09,50,229.10
2017,05,11,09,51,242.60
2017,05,11,09,52,258.00
2017,05,11,09,53,269.70
2017,05,11,09,54,284.30
2017,05,11,09,55,298.60
2017,05,11,09,56,309.00
2017,05,11,09,57,313.00
2017,05,11,09,58,313.00
2017,05,11,09,59,313.60
2017,05,11,10,00,315.00
2017,05,11,10,01,316.30
2017,05,11,10,02,318.90
2017,05,11,10,03,327.00
2017,05,11,10,04,343.00
2017,05,11,10,05,360.60
2017,05,11,10,06,354.60
2017,05,11,10,07,313.10
2017,05,11,10,08,274.60
2017,05,11,10,09,260.10
2017,05,11,10,10,264.90
2017,05,11,10,11,281.60
2017,05,11,10,12,297.60
2017,05,11,10,13,301.70
2017,05,11,10,14,302.00
2017,05,11,10,15,299.10
2017,05,11,10,16,301.50
2017,05,11,10,17,294.20
2017,05,11,10,18,264.00
2017,05,11,10,19,236.00
2017,05,11,10,20,224.40
2017,05,11,10,21,173.40
2017,05,11,10,22,158.90
2017,05,11,10,23,149.10
2017,05,11,10,24,144.40
2017,05,11,10,25,142.00
2017,05,11,10,26,142.00
2017,05,11,10,27,143.00
2017,05,11,10,28,144.00
2017,05,11,10,29,145.20
2017,05,11,10,30,147.90
2017,05,11,10,31,153.20
2017,05,11,10,32,158.80
2017,05,11,10,33,163.80
2017,05,11,10,34,169.80
2017,05,11,10,35,175.30
2017,05,11,10,36,177.90
2017,05,11,10,37,174.40
2017,05,11,10,38,168.90
2017,05,11,10,39,166.80
2017,05,11,10,40,162.50
2017,05,11,10,41,157.00
2017,05,11,10,42,150.00
2017,05,11,10,43,145.20
2017,05,11,10,44,140.60
2017,05,11,10,45,134.70
2017,05,11,10,46,128.90
2017,05,11,10,47,125.30
2017,05,11,10,48,121.70
2017,05,11,10,49,118.00
2017,05,11,10,50,114.50
2017,05,11,10,51,108.40
2017,05,11,10,52,102.00
2017,05,11,10,53,98.10
2017,05,11,10,54,94.30
2017,05,11,10,55,90.80
2017,05,11,10,56,87.00
2017,05,11,10,57,83.60
2017,05,11,10,58,81.30
2017,05,11,10,59,79.10
2017,05,11,11,00,77.10
2017,05,11,11,01,77.00
2017,05,11,11,02,77.00
2017,05,11,11,03,77.00
2017,05,11,11,04,77.00
2017,05,11,11,05,77.40
2017,05,11,11,06,79.50
2017,05,11,11,07,81.80
2017,05,11,11,08,84.70
2017,05,11,11,09,86.80
2017,05,11,11,10,89.20
2017,05,11,11,11,95.10
2017,05,11,11,12,104.30
2017,05,11,11,13,113.70
2017,05,11,11,14,120.90
2017,05,11,11,15,125.40
2017,05,11,11,16,127.00
2017,05,11,11,17,122.70
2017,05,11,11,18,114.00
2017,05,11,11,19,101.20
2017,05,11,11,20,94.00
2017,05,11,11,21,90.40
2017,05,11,11,22,90.00
2017,05,11,11,23,88.10
2017,05,11,11,24,86.00
2017,05,11,11,25,82.80
2017,05,11,11,26,80.40
2017,05,11,11,27,76.50
2017,05,11,11,28,74.00
2017,05,11,11,29,71.90
2017,05,11,11,30,63.60
2017,05,11,11,31,58.80
2017,05,11,11,32,54.90
2017,05,11,11,33,51.40
2017,05,11,11,34,47.70
2017,05,11,11,35,45.00
2017,05,11,11,36,45.10
2017,05,11,11,37,46.60
2017,05,11,11,38,47.00
2017,05,11,11,39,47.00
2017,05,11,11,40,47.00
2017,05,11,11,41,47.00
2017,05,11,11,42,48.60
2017,05,11,11,43,49.00
2017,05,11,11,44,49.00
2017,05,11,11,45,50.80
2017,05,11,11,46,52.90
2017,05,11,11,47,54.00
2017,05,11,11,48,52.80
2017,05,11,11,49,50.60
2017,05,11,11,50,44.50
2017,05,11,11,51,26.80
2017,05,11,11,52,13.30
2017,05,11,11,53,11.80
2017,05,11,11,54,15.30
2017,05,11,11,55,19.20
2017,05,11,11,56,21.00
2017,05,11,11,57,21.00
2017,05,11,11,58,22.90
2017,05,11,11,59,31.30
2017,05,11,12,00,39.90
2017,05,11,12,01,40.20
2017,05,11,12,02,39.00
2017,05,11,12,03,43.90
2017,05,11,12,04,48.10
2017,05,11,12,05,52.20
2017,05,11,12,06,53.00
2017,05,11,12,07,49.60
2017,05,11,12,08,49.00
2017,05,11,12,09,44.50
2017,05,11,12,10,39.00
2017,05,11,12,11,40.20
2017,05,11,12,12,41.80
2017,05,11,12,13,39.80
2017,05,11,12,14,37.80
2017,05,11,12,15,32.30
2017,05,11,12,16,29.00
2017,05,11,12,17,27.40
2017,05,11,12,18,33.30
2017,05,11,12,19,45.00
2017,05,11,12,20,56.30
2017,05,11,12,21,64.50
2017,05,11,12,22,73.20
2017,05,11,12,23,79.40
2017,05,11,12,24,81.00
2017,05,11,12,25,76.30
2017,05,11,12,26,66.50
2017,05,11,12,27,54.60
2017,05,11,12,28,48.00
2017,05,11,12,29,46.20
2017,05,11,12,30,44.30
2017,05,11,12,31,44.00
2017,05,11,12,32,48.80
2017,05,11,12,33,60.30
2017,05,11,12,34,66.80
2017,05,11,12,35,64.30
2017,05,11,12,36,57.30
2017,05,11,12,37,51.80
2017,05,11,12,38,46.20
2017,05,11,12,39,42.50
2017,05,11,12,40,39.00
2017,05,11,12,41,40.80
2017,05,11,12,42,47.60
2017,05,11,12,43,53.50
2017,05,11,12,44,55.90
2017,05,11,12,45,60.80
2017,05,11,12,46,68.20
2017,05,11,12,47,74.40
2017,05,11,12,48,79.30
2017,05,11,12,49,78.00
2017,05,11,12,50,71.00
2017,05,11,12,51,74.60
2017,05,11,12,52,81.70
2017,05,11,12,53,77.90
2017,05,11,12,54,77.00
2017,05,11,12,55,74.10
2017,05,11,12,56,63.00
2017,05,11,12,57,71.20
2017,05,11,12,58,84.60
2017,05,11,12,59,104.20
2017,05,11,13,00,129.10
2017,05,11,13,01,136.00
2017,05,11,13,02,146.00
2017,05,11,13,03,169.90
2017,05,11,13,04,194.70
2017,05,11,13,05,205.80
2017,05,11,13,06,231.80
2017,05,11,13,07,258.00
2017,05,11,13,08,260.80
2017,05,11,13,09,273.50
2017,05,11,13,10,294.40
2017,05,11,13,11,311.40
2017,05,11,13,12,334.70
2017,05,11,13,13,330.40
2017,05,11,13,14,346.00
2017,05,11,13,15,358.10
2017,05,11,13,16,325.60
2017,05,11,13,17,302.90
2017,05,11,13,18,312.40
2017,05,11,13,19,339.00
2017,05,11,13,20,380.40
2017,05,11,13,21,387.00
2017,05,11,13,22,384.00
2017,05,11,13,23,431.00
2017,05,11,13,24,470.90
2017,05,11,13,25,432.60
2017,05,11,13,26,434.00
2017,05,11,13,27,448.10
2017,05,11,13,28,457.30
2017,05,11,13,29,438.50
2017,05,11,13,30,412.50
2017,05,11,13,31,365.50
2017,05,11,13,32,335.50
2017,05,11,13,33,318.30
2017,05,11,13,34,313.00
2017,05,11,13,35,298.30
2017,05,11,13,36,287.00
2017,05,11,13,37,276.20
2017,05,11,13,38,263.90
2017,05,11,13,39,251.80
2017,05,11,13,40,241.90
2017,05,11,13,41,237.20
2017,05,11,13,42,235.80
2017,05,11,13,43,231.90
2017,05,11,13,44,228.70
2017,05,11,13,45,225.60
2017,05,11,13,46,216.70
2017,05,11,13,47,209.50
2017,05,11,13,48,201.90
2017,05,11,13,49,194.70
2017,05,11,13,50,188.20
2017,05,11,13,51,186.90
2017,05,11,13,52,193.50
2017,05,11,13,53,208.50
2017,05,11,13,54,232.00
2017,05,11,13,55,241.20
2017,05,11,13,56,227.90
2017,05,11,13,57,214.50
2017,05,11,13,58,198.40
2017,05,11,13,59,177.50
2017,05,11,14,00,163.00
2017,05,11,14,01,156.80
2017,05,11,14,02,157.60
2017,05,11,14,03,159.80
2017,05,11,14,04,161.90
2017,05,11,14,05,172.00
2017,05,11,14,06,204.40
2017,05,11,14,07,250.10
2017,05,11,14,08,288.10
2017,05,11,14,09,293.70
2017,05,11,14,10,285.00
2017,05,11,14,11,274.20
2017,05,11,14,12,264.50
2017,05,11,14,13,250.40
2017,05,11,14,14,237.80
2017,05,11,14,15,225.70
2017,05,11,14,16,216.50
2017,05,11,14,17,206.90
2017,05,11,14,18,192.30
2017,05,11,14,19,174.90
2017,05,11,14,20,163.00
2017,05,11,14,21,155.10
2017,05,11,14,22,151.60
2017,05,11,14,23,149.40
2017,05,11,14,24,152.40
2017,05,11,14,25,157.50
2017,05,11,14,26,169.80
2017,05,11,14,27,187.10
2017,05,11,14,28,207.90
2017,05,11,14,29,225.90
2017,05,11,14,30,246.00
2017,05,11,14,31,266.00
2017,05,11,14,32,278.60
2017,05,11,14,33,279.80
2017,05,11,14,34,272.70
2017,05,11,14,35,262.00
2017,05,11,14,36,253.70
2017,05,11,14,37,252.60
2017,05,11,14,38,259.30
2017,05,11,14,39,273.60
2017,05,11,14,40,293.50
2017,05,11,14,41,315.80
2017,05,11,14,42,343.80
2017,05,11,14,43,371.20
2017,05,11,14,44,400.50
2017,05,11,14,45,445.20
2017,05,11,14,46,455.50
2017,05,11,14,47,441.40
2017,05,11,14,48,426.90
2017,05,11,14,49,398.90
2017,05,11,14,50,372.20
2017,05,11,14,51,346.00
2017,05,11,14,52,321.40
2017,05,11,14,53,308.50
2017,05,11,14,54,306.20
2017,05,11,14,55,319.20
2017,05,11,14,56,342.00
2017,05,11,14,57,367.10
2017,05,11,14,58,394.30
2017,05,11,14,59,397.50
2017,05,11,15,00,361.80
2017,05,11,15,01,347.10
2017,05,11,15,02,346.00
2017,05,11,15,03,344.40
2017,05,11,15,04,344.80
2017,05,11,15,05,365.80
2017,05,11,15,06,378.00
2017,05,11,15,07,518.70
2017,05,11,15,08,575.00
2017,05,11,15,09,549.50
2017,05,11,15,10,540.20
2017,05,11,15,11,540.00
2017,05,11,15,12,696.80
2017,05,11,15,13,773.60
2017,05,11,15,14,865.00
2017,05,11,15,15,865.00
2017,05,11,15,16,825.90
2017,05,11,15,17,454.00
2017,05,11,15,18,485.80
2017,05,11,15,19,621.00
2017,05,11,15,20,582.20
2017,05,11,15,21,473.00
2017,05,11,15,22,463.10
2017,05,11,15,23,430.10
2017,05,11,15,24,483.60
2017,05,11,15,25,546.70
2017,05,11,15,26,520.00
2017,05,11,15,27,450.90
2017,05,11,15,28,456.20
2017,05,11,15,29,488.30
2017,05,11,15,30,523.10
2017,05,11,15,31,466.20
2017,05,11,15,32,432.20
2017,05,11,15,33,413.60
2017,05,11,15,34,396.40
2017,05,11,15,35,394.00
2017,05,11,15,36,458.40
2017,05,11,15,37,466.20
2017,05,11,15,38,547.00
2017,05,11,15,39,533.80
2017,05,11,15,40,414.00
2017,05,11,15,41,400.20
2017,05,11,15,42,362.20
2017,05,11,15,43,344.50
2017,05,11,15,44,328.40
2017,05,11,15,45,311.50
2017,05,11,15,46,293.30
2017,05,11,15,47,278.40
2017,05,11,15,48,268.70
2017,05,11,15,49,263.50
2017,05,11,15,50,260.80
2017,05,11,15,51,258.20
2017,05,11,15,52,257.60
2017,05,11,15,53,260.80
2017,05,11,15,54,265.80
2017,05,11,15,55,270.00
2017,05,11,15,56,271.00
2017,05,11,15,57,271.00
2017,05,11,15,58,273.70
2017,05,11,15,59,282.50
2017,05,11,16,00,294.40
2017,05,11,16,01,319.50
2017,05,11,16,02,354.70
2017,05,11,16,03,412.10
2017,05,11,16,04,471.20
2017,05,11,16,05,482.30
2017,05,11,16,06,470.30
2017,05,11,16,07,418.10
2017,05,11,16,08,337.90
2017,05,11,16,09,282.20
2017,05,11,16,10,242.40
2017,05,11,16,11,215.50
2017,05,11,16,12,195.00
2017,05,11,16,13,175.10
2017,05,11,16,14,153.70
2017,05,11,16,15,130.50
2017,05,11,16,16,116.10
2017,05,11,16,17,120.40
2017,05,11,16,18,119.00
2017,05,11,16,19,118.00
2017,05,11,16,20,116.20
2017,05,11,16,21,116.00
2017,05,11,16,22,124.60
2017,05,11,16,23,134.90
2017,05,11,16,24,131.30
2017,05,11,16,25,124.10
2017,05,11,16,26,114.70
2017,05,11,16,27,105.70
2017,05,11,16,28,96.30
2017,05,11,16,29,91.00
2017,05,11,16,30,91.60
2017,05,11,16,31,94.40
2017,05,11,16,32,94.70
2017,05,11,16,33,92.80
2017,05,11,16,34,93.10
2017,05,11,16,35,90.40
2017,05,11,16,36,88.80
2017,05,11,16,37,89.90
2017,05,11,16,38,91.00
2017,05,11,16,39,90.30
2017,05,11,16,40,87.00
2017,05,11,16,41,80.40
2017,05,11,16,42,74.80
2017,05,11,16,43,75.70
2017,05,11,16,44,76.00
2017,05,11,16,45,74.10
2017,05,11,16,46,69.00
2017,05,11,16,47,64.90
2017,05,11,16,48,62.40
2017,05,11,16,49,65.60
2017,05,11,16,50,69.20
2017,05,11,16,51,71.00
2017,05,11,16,52,74.60
2017,05,11,16,53,74.20
2017,05,11,16,54,70.00
2017,05,11,16,55,70.90
2017,05,11,16,56,75.20
2017,05,11,16,57,81.40
2017,05,11,16,58,85.00
2017,05,11,16,59,88.10
2017,05,11,17,00,95.00
2017,05,11,17,01,104.30
2017,05,11,17,02,112.00
2017,05,11,17,03,118.50
2017,05,11,17,04,134.50
2017,05,11,17,05,152.80
2017,05,11,17,06,159.40
2017,05,11,17,07,153.70
2017,05,11,17,08,141.60
2017,05,11,17,09,130.40
2017,05,11,17,10,126.90
2017,05,11,17,11,124.60
2017,05,11,17,12,119.70
2017,05,11,17,13,111.90
2017,05,11,17,14,102.30
2017,05,11,17,15,95.00
2017,05,11,17,16,88.20
2017,05,11,17,17,83.60
2017,05,11,17,18,82.20